Regional Weather Roundup
Issued by NWS

Home | Current Version | Previous Version | Graphics & Text | Print | Product List | Glossary On
Versions: 1 2 3 4 5 6 7 8 9 10 11 12 13 14 15 16 17 18 19 20 21 22 23 24 25 26 27 28 29 30 31 32 33 34 35 36 37 38 39 40 41 42 43 44 45 46 47 48 49 50
000
ASUS43 KIND 242359
RWRIN

WEATHER ROUNDUP FOR INDIANA
NATIONAL WEATHER SERVICE INDIANAPOLIS IN
800 PM EDT WED AUG 24 2016

NOTE: "FAIR" INDICATES FEW OR NO CLOUDS BELOW 12,000 FEET WITH NO
SIGNIFICANT WEATHER AND/OR OBSTRUCTIONS TO VISIBILITY.

* - STATION DOES NOT REPORT WEATHER SUCH AS PRECIPITATION OR FOG.

+ - STATION NOT QUALITY CONTROLLED BY THE NATIONAL WEATHER SERVICE.
    USE DATA WITH CAUTION...ESPECIALLY DEWPOINT AND RELATIVE
    HUMIDITY OBSERVATIONS.

INZ001>003-010>013-019-020-250100-
NORTHWEST INDIANA

CITY           SKY/WX    TMP DP  RH WIND       PRES   REMARKS
GARY /AIRPORT/ PTCLDY    82  73  74 W5        29.95R
KNOX *+        CLEAR     79  52  38 W5        29.97R
MONTICELLO +   CLEAR     80  65  61 W7        29.98R
6HR MIN TEMP:  73; 6HR MAX TEMP:  83;

RENSSELAER +   CLEAR     79  72  78 SW5       29.99R

$$

LMZ046-743>745-250100-
SOUTHERN LAKE MICHIGAN

STATION/POSITION TIME  TEMP    WIND        PRES    WAVE
                       AIR SEA DIR/SP/G            HT
                 (UTC) (F)     (DEG/KT/KT) (MB)    (FT)
BURNS HARBOR     2308   79     260/ 10/ 18 1014.2R
MICHIGAN CITY    2300   77     220/ 11/ 11   N/A
5NW MICH CITY    2300   77 74  250/  8/ 12   N/A     1

$$

INZ004-005-014>016-021>024-250100-
NORTH CENTRAL INDIANA

CITY           SKY/WX    TMP DP  RH WIND       PRES   REMARKS
ELKHART        PTCLDY    77  72  83 SW7       29.97R
GOSHEN         CLOUDY    75  68  78 SW8       29.97R
6HR MIN TEMP:  75; 6HR MAX TEMP:  80; 6HR PCP:  0.05;

SOUTH BEND     CLOUDY    77  72  84 SW7       29.97R
6HR MIN TEMP:  74; 6HR MAX TEMP:  81; 6HR PCP: TRACE;


$$

INZ006>009-017-018-025>027-250100-
NORTHEAST INDIANA

CITY           SKY/WX    TMP DP  RH WIND       PRES   REMARKS
ANGOLA *+      PTCLDY    77  70  78 S7        29.97S
FORT WAYNE     TSTM      77  72  84 SW16G22   29.98R
6HR MIN TEMP:  76; 6HR MAX TEMP:  80; 6HR PCP:  0.94;


$$

INZ028-029-035-036-043>045-051>053-250100-
WEST CENTRAL INDIANA

CITY           SKY/WX    TMP DP  RH WIND       PRES   REMARKS
CRAWFORDSVL +  CLOUDY    80  77  91 SW5       30.02R
6HR MIN TEMP:  73; 6HR MAX TEMP:  83; 6HR PCP:  0.36;

GREENCASTLE +  CLOUDY    79  79 100 CALM      30.04R
LAFAYETTE      CLOUDY    81  75  82 W8        29.99R
6HR MIN TEMP:  75; 6HR MAX TEMP:  86; 6HR PCP:  0.17;

TERRE HAUTE    PTCLDY    84  75  74 SW8       30.01S
6HR MIN TEMP:  84; 6HR MAX TEMP:  88; 6HR PCP:  0.03;


$$

INZ030>032-037>040-046>048-054>057-064-065-250100-
CENTRAL INDIANA

CITY           SKY/WX    TMP DP  RH WIND       PRES   REMARKS
COLUMBUS       PTCLDY    77  73  88 S9        30.05S
INDIANAPOLIS   CLOUDY    81  74  79 S9        30.03R
6HR MIN TEMP:  78; 6HR MAX TEMP:  87; 6HR PCP:  0.01;

-EAGLE CREEK   MOCLDY    81  74  79 SW6       30.02R
6HR MIN TEMP:  75; 6HR MAX TEMP:  86; 6HR PCP:  0.83;

MT COMFORT *+  MOCLDY    75  72  88 S5        30.03S
SHELBYVILLE    CLOUDY    81  73  76 SW10      30.03S
6HR MIN TEMP:  76; 6HR MAX TEMP:  87; 6HR PCP:  0.62;


$$

INZ033-034-041-042-049-050-058-059-250100-
EAST CENTRAL INDIANA

CITY           SKY/WX    TMP DP  RH WIND       PRES   REMARKS
MUNCIE         CLOUDY    79  71  76 S13G21    29.99F
6HR MIN TEMP:  79; 6HR MAX TEMP:  85; 6HR PCP:  0.05;


$$

INZ060-061-067>069-081>083-085>088-250100-
SOUTHWEST INDIANA

CITY           SKY/WX    TMP DP  RH WIND       PRES   REMARKS
EVANSVILLE     CLEAR     86  72  62 SW10      30.05S
6HR MIN TEMP:  86; 6HR MAX TEMP:  90;

HUNTINGBURG *+ CLEAR     84  73  70 S9        30.06R
6HR MIN TEMP:  84; 6HR MAX TEMP:  90;


$$

INZ062-063-066-070>080-084-089>092-250100-
SOUTH CENTRAL AND SOUTHEAST INDIANA

CITY           SKY/WX    TMP DP  RH WIND       PRES   REMARKS
BLOOMINGTON    CLOUDY    80  74  81 SW5       30.05R
6HR MIN TEMP:  80; 6HR MAX TEMP:  86; 6HR PCP:  0.11;

MADISON *+     PTCLDY    82  70  65 SW8       30.09S

$$





USA.gov is the U.S. government's official web portal to all federal, state and local government web resources and services.